Time,TemperatureF,DewpointF,PressureIn,WindDirection,WindDirectionDegrees,WindSpeedMPH,WindSpeedGustMPH,Humidity,HourlyPrecipIn,Conditions,Clouds,dailyrainin,SoftwareType,DateUTC
2013-08-19 00:00:00,65.7,59.7,30.06,NE,45,0.0,0.0,81,0.00,,,0.00,WSDL version 430,2013-08-19 05:00:00,
2013-08-19 00:05:00,65.6,59.6,30.05,NE,45,0.0,0.0,81,0.00,,,0.00,WSDL version 430,2013-08-19 05:05:00,
2013-08-19 00:10:00,65.5,59.5,30.05,NE,45,0.0,0.0,81,0.00,,,0.00,WSDL version 430,2013-08-19 05:10:00,
2013-08-19 00:15:00,65.6,59.6,30.05,NE,45,0.0,0.0,81,0.00,,,0.00,WSDL version 430,2013-08-19 05:15:00,
2013-08-19 00:20:00,65.8,59.8,30.05,NE,45,0.0,0.0,81,0.00,,,0.00,WSDL version 430,2013-08-19 05:20:00,
2013-08-19 00:25:00,65.6,59.6,30.05,ESE,115,0.0,0.0,81,0.00,,,0.00,WSDL version 430,2013-08-19 05:25:00,
2013-08-19 00:30:00,65.6,59.3,30.05,SSE,158,0.0,0.0,80,0.00,,,0.00,WSDL version 430,2013-08-19 05:30:00,
2013-08-19 00:35:00,65.7,59.4,30.05,SSE,158,0.0,0.0,80,0.00,,,0.00,WSDL version 430,2013-08-19 05:35:00,
2013-08-19 00:40:00,65.8,59.5,30.05,SSE,158,0.0,0.0,80,0.00,,,0.00,WSDL version 430,2013-08-19 05:40:00,
2013-08-19 00:45:00,65.7,59.2,30.05,SSE,158,0.0,0.0,79,0.00,,,0.00,WSDL version 430,2013-08-19 05:45:00,
2013-08-19 00:50:00,65.7,59.2,30.05,SSE,158,0.0,0.0,79,0.00,,,0.00,WSDL version 430,2013-08-19 05:50:00,
2013-08-19 00:55:00,65.6,59.2,30.05,SSE,158,0.0,0.0,80,0.00,,,0.00,WSDL version 430,2013-08-19 05:55:00,
2013-08-19 01:00:00,65.5,59.2,30.05,SSE,158,0.0,0.0,81,0.00,,,0.00,WSDL version 430,2013-08-19 06:00:00,
2013-08-19 01:05:00,65.2,59.3,30.05,SSE,158,0.0,0.0,81,0.00,,,0.00,WSDL version 430,2013-08-19 06:05:00,
2013-08-19 01:10:00,65.1,58.9,30.05,SSE,158,0.0,0.0,80,0.00,,,0.00,WSDL version 430,2013-08-19 06:10:00,
2013-08-19 01:15:00,65.0,59.1,30.05,SSE,158,0.0,0.0,81,0.00,,,0.00,WSDL version 430,2013-08-19 06:15:00,
2013-08-19 01:20:00,64.8,58.9,30.05,SSE,158,0.0,0.0,81,0.00,,,0.00,WSDL version 430,2013-08-19 06:20:00,
2013-08-19 01:25:00,64.7,58.9,30.05,SSE,158,0.0,0.0,82,0.00,,,0.00,WSDL version 430,2013-08-19 06:25:00,
2013-08-19 01:30:00,64.4,58.8,30.05,SSE,158,0.0,0.0,82,0.00,,,0.00,WSDL version 430,2013-08-19 06:30:00,
2013-08-19 01:35:00,64.3,59.0,30.05,SSE,158,0.0,0.0,83,0.00,,,0.00,WSDL version 430,2013-08-19 06:35:00,
2013-08-19 01:40:00,64.2,59.0,30.05,SSE,158,0.0,0.0,83,0.00,,,0.00,WSDL version 430,2013-08-19 06:40:00,
2013-08-19 01:45:00,64.2,59.3,30.05,SSE,158,0.0,0.0,84,0.00,,,0.00,WSDL version 430,2013-08-19 06:45:00,
2013-08-19 01:50:00,64.0,59.2,30.05,SSE,158,0.0,0.0,85,0.00,,,0.00,WSDL version 430,2013-08-19 06:50:00,
2013-08-19 01:55:00,63.9,59.3,30.05,SSE,158,0.0,0.0,85,0.00,,,0.00,WSDL version 430,2013-08-19 06:55:00,
2013-08-19 02:00:00,63.8,59.2,30.05,SSE,158,0.0,0.0,85,0.00,,,0.00,WSDL version 430,2013-08-19 07:00:00,
2013-08-19 02:05:00,63.7,59.1,30.04,SSE,158,0.0,0.0,85,0.00,,,0.00,WSDL version 430,2013-08-19 07:05:00,
2013-08-19 02:10:00,63.6,59.1,30.04,SSE,158,0.0,0.0,85,0.00,,,0.00,WSDL version 430,2013-08-19 07:10:00,
2013-08-19 02:15:00,63.4,59.1,30.04,SSE,158,0.0,0.0,85,0.00,,,0.00,WSDL version 430,2013-08-19 07:15:00,
2013-08-19 02:20:00,63.3,59.0,30.04,SSE,158,0.0,0.0,86,0.00,,,0.00,WSDL version 430,2013-08-19 07:20:00,
2013-08-19 02:25:00,63.2,58.9,30.04,SSE,158,0.0,0.0,86,0.00,,,0.00,WSDL version 430,2013-08-19 07:25:00,
2013-08-19 02:30:00,63.3,59.1,30.04,SSE,158,0.0,0.0,86,0.00,,,0.00,WSDL version 430,2013-08-19 07:30:00,
2013-08-19 02:35:00,63.3,59.0,30.04,SSE,158,0.0,0.0,86,0.00,,,0.00,WSDL version 430,2013-08-19 07:35:00,
2013-08-19 02:40:00,63.1,58.9,30.04,SSE,158,0.0,0.0,86,0.00,,,0.00,WSDL version 430,2013-08-19 07:40:00,
2013-08-19 02:45:00,63.1,58.9,30.04,SSE,158,0.0,0.0,86,0.00,,,0.00,WSDL version 430,2013-08-19 07:45:00,
2013-08-19 02:50:00,63.1,58.9,30.05,SSE,158,0.0,0.0,86,0.00,,,0.00,WSDL version 430,2013-08-19 07:50:00,
2013-08-19 02:55:00,63.1,58.9,30.04,SSE,158,0.0,0.0,86,0.00,,,0.00,WSDL version 430,2013-08-19 07:55:00,
2013-08-19 03:00:00,63.1,58.9,30.04,SSE,158,0.0,0.0,86,0.00,,,0.00,WSDL version 430,2013-08-19 08:00:00,
2013-08-19 03:05:00,63.0,58.8,30.04,SSE,158,0.0,0.0,86,0.00,,,0.00,WSDL version 430,2013-08-19 08:05:00,
2013-08-19 03:10:00,63.0,58.8,30.04,SSE,158,0.0,0.0,87,0.00,,,0.00,WSDL version 430,2013-08-19 08:10:00,
2013-08-19 03:15:00,63.0,59.0,30.04,SSE,158,0.0,0.0,87,0.00,,,0.00,WSDL version 430,2013-08-19 08:15:00,
2013-08-19 03:20:00,63.0,58.9,30.04,SSE,158,0.0,0.0,87,0.00,,,0.00,WSDL version 430,2013-08-19 08:20:00,
2013-08-19 03:25:00,63.0,58.8,30.05,SSE,158,0.0,0.0,86,0.00,,,0.00,WSDL version 430,2013-08-19 08:25:00,
2013-08-19 03:30:00,63.0,58.8,30.04,SSE,158,0.0,0.0,87,0.00,,,0.00,WSDL version 430,2013-08-19 08:30:00,
2013-08-19 03:35:00,63.0,59.0,30.04,SSE,158,0.0,0.0,87,0.00,,,0.00,WSDL version 430,2013-08-19 08:35:00,
2013-08-19 03:40:00,63.0,59.0,30.04,SSE,158,0.0,0.0,87,0.00,,,0.00,WSDL version 430,2013-08-19 08:40:00,
2013-08-19 03:45:00,63.0,58.7,30.04,SSE,158,0.0,0.0,86,0.00,,,0.00,WSDL version 430,2013-08-19 08:45:00,
2013-08-19 03:50:00,63.0,58.9,30.04,SSE,158,0.0,0.0,87,0.00,,,0.00,WSDL version 430,2013-08-19 08:50:00,
2013-08-19 03:55:00,63.0,59.0,30.04,SSE,158,0.0,0.0,86,0.00,,,0.00,WSDL version 430,2013-08-19 08:55:00,
2013-08-19 04:00:00,63.0,59.0,30.05,SSE,158,0.0,0.0,87,0.00,,,0.00,WSDL version 430,2013-08-19 09:00:00,
2013-08-19 04:05:00,63.0,59.0,30.05,SSE,158,0.0,0.0,87,0.00,,,0.00,WSDL version 430,2013-08-19 09:05:00,
2013-08-19 04:10:00,62.8,58.9,30.05,SSE,158,0.0,0.0,87,0.00,,,0.00,WSDL version 430,2013-08-19 09:10:00,
2013-08-19 04:15:00,62.8,58.9,30.05,SSE,158,0.0,0.0,87,0.00,,,0.00,WSDL version 430,2013-08-19 09:15:00,
2013-08-19 04:20:00,62.8,58.9,30.05,SSE,158,0.0,0.0,87,0.00,,,0.00,WSDL version 430,2013-08-19 09:20:00,
2013-08-19 04:25:00,63.0,59.0,30.04,SSE,158,0.0,0.0,87,0.00,,,0.00,WSDL version 430,2013-08-19 09:25:00,
2013-08-19 04:30:00,62.9,59.2,30.04,SSE,158,0.0,0.0,87,0.00,,,0.00,WSDL version 430,2013-08-19 09:30:00,
2013-08-19 04:35:00,62.8,58.9,30.04,SSE,158,0.0,0.0,87,0.00,,,0.00,WSDL version 430,2013-08-19 09:35:00,
2013-08-19 04:40:00,63.0,59.0,30.04,SSE,158,0.0,0.0,87,0.00,,,0.00,WSDL version 430,2013-08-19 09:40:00,
2013-08-19 04:45:00,63.0,59.2,30.04,SSE,158,0.0,0.0,88,0.00,,,0.00,WSDL version 430,2013-08-19 09:45:00,
2013-08-19 04:50:00,63.0,59.4,30.04,SSE,158,0.0,0.0,88,0.00,,,0.00,WSDL version 430,2013-08-19 09:50:00,
2013-08-19 04:55:00,63.0,59.4,30.05,SSE,158,0.0,0.0,88,0.00,,,0.00,WSDL version 430,2013-08-19 09:55:00,
2013-08-19 05:00:00,62.8,59.2,30.05,SSE,158,0.0,0.0,88,0.00,,,0.00,WSDL version 430,2013-08-19 10:00:00,
2013-08-19 05:05:00,62.8,59.2,30.05,SSE,158,0.0,0.0,88,0.00,,,0.00,WSDL version 430,2013-08-19 10:05:00,
2013-08-19 05:10:00,63.0,59.4,30.05,SSE,158,0.0,0.0,88,0.00,,,0.00,WSDL version 430,2013-08-19 10:10:00,
2013-08-19 05:15:00,63.0,59.4,30.05,SSE,158,0.0,0.0,88,0.00,,,0.00,WSDL version 430,2013-08-19 10:15:00,
2013-08-19 05:20:00,62.9,59.4,30.05,SSE,158,0.0,0.0,89,0.00,,,0.00,WSDL version 430,2013-08-19 10:20:00,
2013-08-19 05:25:00,62.8,59.5,30.05,SSE,158,0.0,0.0,89,0.00,,,0.00,WSDL version 430,2013-08-19 10:25:00,
2013-08-19 05:30:00,62.8,59.5,30.05,SSE,158,0.0,0.0,89,0.00,,,0.00,WSDL version 430,2013-08-19 10:30:00,
2013-08-19 05:35:00,62.7,59.6,30.05,SSE,158,0.0,0.0,90,0.00,,,0.00,WSDL version 430,2013-08-19 10:35:00,
2013-08-19 05:40:00,62.6,59.4,30.05,ESE,113,0.0,0.0,89,0.00,,,0.00,WSDL version 430,2013-08-19 10:40:00,
2013-08-19 05:45:00,62.6,59.3,30.05,ESE,113,0.0,0.0,89,0.00,,,0.00,WSDL version 430,2013-08-19 10:45:00,
2013-08-19 05:50:00,62.6,59.6,30.05,ESE,113,0.0,0.0,90,0.00,,,0.00,WSDL version 430,2013-08-19 10:50:00,
2013-08-19 05:55:00,62.6,59.7,30.05,ESE,113,0.0,0.0,90,0.00,,,0.00,WSDL version 430,2013-08-19 10:55:00,
2013-08-19 06:00:00,62.6,59.6,30.06,ESE,113,0.0,0.0,90,0.00,,,0.00,WSDL version 430,2013-08-19 11:00:00,
2013-08-19 06:05:00,62.6,59.8,30.06,ESE,113,0.0,0.0,91,0.00,,,0.00,WSDL version 430,2013-08-19 11:05:00,
2013-08-19 06:10:00,62.4,60.0,30.06,ESE,113,0.0,0.0,91,0.00,,,0.00,WSDL version 430,2013-08-19 11:10:00,
2013-08-19 06:15:00,62.2,59.6,30.06,ESE,113,0.0,0.0,91,0.00,,,0.00,WSDL version 430,2013-08-19 11:15:00,
2013-08-19 06:20:00,62.4,59.7,30.06,ESE,113,0.0,0.0,91,0.00,,,0.00,WSDL version 430,2013-08-19 11:20:00,
2013-08-19 06:25:00,62.3,59.6,30.06,ESE,113,0.0,0.0,91,0.00,,,0.00,WSDL version 430,2013-08-19 11:25:00,
2013-08-19 06:30:00,62.3,59.9,30.06,ESE,113,0.0,0.0,92,0.00,,,0.00,WSDL version 430,2013-08-19 11:30:00,
2013-08-19 06:35:00,62.2,60.1,30.06,ESE,113,0.0,0.0,93,0.00,,,0.00,WSDL version 430,2013-08-19 11:35:00,
2013-08-19 06:40:00,62.2,60.1,30.06,ESE,113,0.0,0.0,93,0.00,,,0.00,WSDL version 430,2013-08-19 11:40:00,
2013-08-19 06:45:00,62.2,60.2,30.06,ESE,113,0.0,0.0,93,0.00,,,0.00,WSDL version 430,2013-08-19 11:45:00,
2013-08-19 06:50:00,62.2,60.3,30.07,ESE,113,0.0,0.0,94,0.00,,,0.00,WSDL version 430,2013-08-19 11:50:00,
2013-08-19 06:55:00,62.4,60.6,30.07,ESE,113,0.0,0.0,93,0.00,,,0.00,WSDL version 430,2013-08-19 11:55:00,
2013-08-19 07:00:00,62.6,60.7,30.07,ESE,113,0.0,0.0,94,0.00,,,0.00,WSDL version 430,2013-08-19 12:00:00,
2013-08-19 07:05:00,62.8,61.1,30.07,ESE,113,0.0,0.0,94,0.00,,,0.00,WSDL version 430,2013-08-19 12:05:00,
2013-08-19 07:10:00,63.1,61.6,30.07,ESE,113,0.0,0.0,95,0.00,,,0.00,WSDL version 430,2013-08-19 12:10:00,
2013-08-19 07:15:00,63.4,61.9,30.07,ESE,113,0.0,0.0,95,0.00,,,0.00,WSDL version 430,2013-08-19 12:15:00,
2013-08-19 07:20:00,63.7,62.3,30.07,ESE,113,0.0,0.0,95,0.00,,,0.00,WSDL version 430,2013-08-19 12:20:00,
2013-08-19 07:25:00,64.2,62.9,30.07,South,170,0.0,1.6,95,0.00,,,0.00,WSDL version 430,2013-08-19 12:25:00,
2013-08-19 07:30:00,64.8,63.5,30.07,SSE,158,1.7,2.0,96,0.00,,,0.00,WSDL version 430,2013-08-19 12:30:00,
2013-08-19 07:35:00,65.6,64.4,30.07,South,169,1.6,2.5,96,0.00,,,0.00,WSDL version 430,2013-08-19 12:35:00,
2013-08-19 07:40:00,66.2,65.0,30.07,SSE,154,1.0,2.7,96,0.00,,,0.00,WSDL version 430,2013-08-19 12:40:00,
2013-08-19 07:45:00,66.8,65.6,30.06,SSE,158,1.2,2.7,95,0.00,,,0.00,WSDL version 430,2013-08-19 12:45:00,
2013-08-19 07:50:00,67.7,66.3,30.06,SSE,158,0.9,2.5,95,0.00,,,0.00,WSDL version 430,2013-08-19 12:50:00,
2013-08-19 07:55:00,68.5,67.0,30.06,SSE,158,0.9,2.2,94,0.00,,,0.00,WSDL version 430,2013-08-19 12:55:00,
2013-08-19 08:00:00,69.2,67.4,30.06,South,169,0.6,1.3,93,0.00,,,0.00,WSDL version 430,2013-08-19 13:00:00,
2013-08-19 08:05:00,69.7,67.5,30.07,SSW,193,2.0,2.9,92,0.00,,,0.00,WSDL version 430,2013-08-19 13:05:00,
2013-08-19 08:10:00,70.1,67.1,30.07,South,175,2.6,4.0,90,0.00,,,0.00,WSDL version 430,2013-08-19 13:10:00,
2013-08-19 08:15:00,70.5,67.4,30.07,South,191,1.7,4.0,89,0.00,,,0.00,WSDL version 430,2013-08-19 13:15:00,
2013-08-19 08:20:00,70.8,67.4,30.07,SW,215,0.6,3.4,89,0.00,,,0.00,WSDL version 430,2013-08-19 13:20:00,
2013-08-19 08:25:00,71.3,67.5,30.07,SW,222,1.6,3.1,87,0.00,,,0.00,WSDL version 430,2013-08-19 13:25:00,
2013-08-19 08:30:00,71.6,67.4,30.07,South,185,2.6,3.8,86,0.00,,,0.00,WSDL version 430,2013-08-19 13:30:00,
2013-08-19 08:35:00,72.1,67.6,30.07,SW,219,2.3,3.8,85,0.00,,,0.00,WSDL version 430,2013-08-19 13:35:00,
2013-08-19 08:40:00,72.4,67.5,30.07,SSW,197,2.9,3.6,84,0.00,,,0.00,WSDL version 430,2013-08-19 13:40:00,
2013-08-19 08:45:00,72.7,67.7,30.07,South,188,3.0,4.9,84,0.00,,,0.00,WSDL version 430,2013-08-19 13:45:00,
2013-08-19 08:50:00,73.1,68.0,30.07,SSW,206,2.6,4.9,84,0.00,,,0.00,WSDL version 430,2013-08-19 13:50:00,
2013-08-19 08:55:00,73.4,68.0,30.07,SSW,210,2.3,4.0,83,0.00,,,0.00,WSDL version 430,2013-08-19 13:55:00,
2013-08-19 09:00:00,73.6,67.9,30.07,South,191,2.8,3.6,82,0.00,,,0.00,WSDL version 430,2013-08-19 14:00:00,
2013-08-19 09:05:00,73.8,68.0,30.07,SW,217,2.4,4.0,82,0.00,,,0.00,WSDL version 430,2013-08-19 14:05:00,
2013-08-19 09:10:00,74.0,68.1,30.07,SW,214,2.8,4.0,82,0.00,,,0.00,WSDL version 430,2013-08-19 14:10:00,
2013-08-19 09:15:00,74.3,68.1,30.07,South,172,2.7,4.0,81,0.00,,,0.00,WSDL version 430,2013-08-19 14:15:00,
2013-08-19 09:20:00,74.3,68.0,30.07,SSW,197,2.5,4.0,80,0.00,,,0.00,WSDL version 430,2013-08-19 14:20:00,
2013-08-19 09:25:00,74.4,67.7,30.07,SW,218,2.3,4.0,79,0.00,,,0.00,WSDL version 430,2013-08-19 14:25:00,
2013-08-19 09:30:00,74.6,68.1,30.07,SSW,203,3.6,4.3,80,0.00,,,0.00,WSDL version 430,2013-08-19 14:30:00,
2013-08-19 09:35:00,74.8,68.0,30.07,SSW,196,1.4,4.3,79,0.00,,,0.00,WSDL version 430,2013-08-19 14:35:00,
2013-08-19 09:40:00,75.0,68.0,30.07,SSW,194,1.9,4.0,79,0.00,,,0.00,WSDL version 430,2013-08-19 14:40:00,
2013-08-19 09:45:00,75.2,68.0,30.07,NW,313,0.9,6.3,78,0.00,,,0.00,WSDL version 430,2013-08-19 14:45:00,
2013-08-19 09:50:00,75.3,67.9,30.07,SSE,166,2.9,6.3,78,0.00,,,0.00,WSDL version 430,2013-08-19 14:50:00,
2013-08-19 09:55:00,75.6,68.7,30.07,South,183,2.1,4.3,79,0.00,,,0.00,WSDL version 430,2013-08-19 14:55:00,
2013-08-19 10:00:00,76.0,68.9,30.07,SSW,200,0.8,4.3,79,0.00,,,0.00,WSDL version 430,2013-08-19 15:00:00,
2013-08-19 10:05:00,76.3,69.0,30.07,SW,228,2.2,4.3,79,0.00,,,0.00,WSDL version 430,2013-08-19 15:05:00,
2013-08-19 10:10:00,76.5,69.3,30.06,SSW,199,1.7,4.3,79,0.00,,,0.00,WSDL version 430,2013-08-19 15:10:00,
2013-08-19 10:15:00,76.7,69.4,30.06,South,188,3.0,5.6,78,0.00,,,0.00,WSDL version 430,2013-08-19 15:15:00,
2013-08-19 10:20:00,77.0,69.2,30.06,SSW,195,2.1,5.6,77,0.00,,,0.00,WSDL version 430,2013-08-19 15:20:00,
2013-08-19 10:25:00,77.0,69.1,30.07,South,180,1.9,4.9,76,0.00,,,0.00,WSDL version 430,2013-08-19 15:25:00,
2013-08-19 10:30:00,77.3,69.1,30.06,SSE,168,2.0,3.8,76,0.00,,,0.00,WSDL version 430,2013-08-19 15:30:00,
2013-08-19 10:35:00,77.5,69.1,30.07,West,281,1.8,4.3,75,0.00,,,0.00,WSDL version 430,2013-08-19 15:35:00,
2013-08-19 10:40:00,77.5,68.5,30.07,SSW,211,1.9,4.3,74,0.00,,,0.00,WSDL version 430,2013-08-19 15:40:00,
2013-08-19 10:45:00,77.6,68.7,30.06,SSW,206,3.8,5.4,74,0.00,,,0.00,WSDL version 430,2013-08-19 15:45:00,
2013-08-19 10:50:00,77.7,68.8,30.06,SSW,208,3.0,5.4,74,0.00,,,0.00,WSDL version 430,2013-08-19 15:50:00,
2013-08-19 10:55:00,77.9,68.9,30.06,North,354,2.1,4.3,74,0.00,,,0.00,WSDL version 430,2013-08-19 15:55:00,
2013-08-19 11:00:00,77.9,68.7,30.06,South,190,4.4,6.0,74,0.00,,,0.00,WSDL version 430,2013-08-19 16:00:00,
2013-08-19 11:05:00,78.2,69.1,30.06,SSW,197,2.7,7.4,74,0.00,,,0.00,WSDL version 430,2013-08-19 16:05:00,
2013-08-19 11:10:00,78.3,69.0,30.06,NNW,334,2.5,7.4,73,0.00,,,0.00,WSDL version 430,2013-08-19 16:10:00,
2013-08-19 11:15:00,78.4,69.0,30.06,SSW,206,3.3,5.6,73,0.00,,,0.00,WSDL version 430,2013-08-19 16:15:00,
2013-08-19 11:20:00,78.7,69.3,30.06,West,281,3.1,6.0,73,0.00,,,0.00,WSDL version 430,2013-08-19 16:20:00,
2013-08-19 11:25:00,78.8,69.1,30.06,NNW,333,1.7,6.0,72,0.00,,,0.00,WSDL version 430,2013-08-19 16:25:00,
2013-08-19 11:30:00,78.7,68.9,30.06,West,259,1.6,4.7,72,0.00,,,0.00,WSDL version 430,2013-08-19 16:30:00,
2013-08-19 11:35:00,78.8,69.0,30.06,WSW,254,1.5,6.0,72,0.00,,,0.00,WSDL version 430,2013-08-19 16:35:00,
2013-08-19 11:40:00,79.0,69.0,30.06,NW,325,2.8,6.0,71,0.00,,,0.00,WSDL version 430,2013-08-19 16:40:00,
2013-08-19 11:45:00,79.0,68.6,30.06,South,180,2.6,6.3,71,0.00,,,0.00,WSDL version 430,2013-08-19 16:45:00,
2013-08-19 11:50:00,79.3,69.0,30.06,NW,309,1.8,6.3,70,0.00,,,0.00,WSDL version 430,2013-08-19 16:50:00,
2013-08-19 11:55:00,79.3,68.7,30.06,ENE,61,1.6,5.8,70,0.00,,,0.00,WSDL version 430,2013-08-19 16:55:00,
2013-08-19 12:00:00,79.5,69.0,30.05,NNW,329,2.7,3.8,70,0.00,,,0.00,WSDL version 430,2013-08-19 17:00:00,
2013-08-19 12:05:00,79.5,68.9,30.05,West,266,1.3,4.5,70,0.00,,,0.00,WSDL version 430,2013-08-19 17:05:00,
2013-08-19 12:10:00,79.7,68.7,30.05,North,349,3.8,5.4,69,0.00,,,0.00,WSDL version 430,2013-08-19 17:10:00,
2013-08-19 12:15:00,79.9,68.9,30.05,NNW,331,2.1,5.4,69,0.00,,,0.00,WSDL version 430,2013-08-19 17:15:00,
2013-08-19 12:20:00,80.1,68.7,30.05,West,274,1.4,4.9,69,0.00,,,0.00,WSDL version 430,2013-08-19 17:20:00,
2013-08-19 12:25:00,80.4,69.3,30.04,North,360,2.4,4.7,69,0.00,,,0.00,WSDL version 430,2013-08-19 17:25:00,
2013-08-19 12:30:00,81.0,69.9,30.04,SSE,158,2.6,5.6,69,0.00,,,0.00,WSDL version 430,2013-08-19 17:30:00,
2013-08-19 12:35:00,81.7,70.0,30.04,SSW,196,3.4,7.6,67,0.00,,,0.00,WSDL version 430,2013-08-19 17:35:00,
2013-08-19 12:40:00,81.8,70.0,30.04,SE,135,3.8,7.6,68,0.00,,,0.00,WSDL version 430,2013-08-19 17:40:00,
2013-08-19 12:45:00,82.3,70.1,30.04,NNE,23,1.9,6.5,67,0.00,,,0.00,WSDL version 430,2013-08-19 17:45:00,
2013-08-19 12:50:00,82.3,70.3,30.03,SW,219,3.6,4.9,67,0.00,,,0.00,WSDL version 430,2013-08-19 17:50:00,
2013-08-19 12:55:00,82.1,69.7,30.03,South,174,3.5,7.2,66,0.00,,,0.00,WSDL version 430,2013-08-19 17:55:00,
2013-08-19 13:00:00,82.2,70.1,30.04,SSW,195,2.9,7.2,67,0.00,,,0.00,WSDL version 430,2013-08-19 18:00:00,
2013-08-19 13:05:00,82.4,70.1,30.04,East,84,1.8,7.2,66,0.00,,,0.00,WSDL version 430,2013-08-19 18:05:00,
2013-08-19 13:10:00,82.7,70.4,30.04,SE,145,2.0,4.7,66,0.00,,,0.00,WSDL version 430,2013-08-19 18:10:00,
2013-08-19 13:15:00,82.7,69.5,30.04,South,177,2.8,4.7,65,0.00,,,0.00,WSDL version 430,2013-08-19 18:15:00,
2013-08-19 13:20:00,82.4,69.3,30.03,South,173,0.4,4.0,65,0.00,,,0.00,WSDL version 430,2013-08-19 18:20:00,
2013-08-19 13:25:00,82.1,69.2,30.03,ENE,64,1.0,4.3,66,0.00,,,0.00,WSDL version 430,2013-08-19 18:25:00,
2013-08-19 13:30:00,82.0,69.3,30.03,ENE,61,1.9,4.3,65,0.00,,,0.00,WSDL version 430,2013-08-19 18:30:00,
2013-08-19 13:35:00,82.3,69.8,30.03,North,352,1.1,3.4,66,0.00,,,0.00,WSDL version 430,2013-08-19 18:35:00,
2013-08-19 13:40:00,82.3,69.4,30.03,South,184,2.0,3.8,65,0.00,,,0.00,WSDL version 430,2013-08-19 18:40:00,
2013-08-19 13:45:00,82.5,69.6,30.03,ESE,109,2.6,4.0,65,0.00,,,0.00,WSDL version 430,2013-08-19 18:45:00,
2013-08-19 13:50:00,82.7,70.1,30.03,SSW,206,2.0,4.5,65,0.00,,,0.00,WSDL version 430,2013-08-19 18:50:00,
2013-08-19 13:55:00,82.7,69.3,30.03,NW,321,2.3,4.5,62,0.00,,,0.00,WSDL version 430,2013-08-19 18:55:00,
2013-08-19 14:00:00,82.5,67.9,30.03,South,177,3.8,5.8,62,0.00,,,0.00,WSDL version 430,2013-08-19 19:00:00,
2013-08-19 14:05:00,82.5,68.1,30.03,SSW,208,2.8,5.8,62,0.00,,,0.00,WSDL version 430,2013-08-19 19:05:00,
2013-08-19 14:10:00,82.1,67.7,30.03,NE,39,1.5,4.0,62,0.00,,,0.00,WSDL version 430,2013-08-19 19:10:00,
2013-08-19 14:15:00,82.0,67.2,30.03,NW,304,1.9,5.6,61,0.00,,,0.00,WSDL version 430,2013-08-19 19:15:00,
2013-08-19 14:20:00,81.8,67.2,30.03,SSW,206,3.5,6.5,61,0.00,,,0.00,WSDL version 430,2013-08-19 19:20:00,
2013-08-19 14:25:00,81.8,68.1,30.02,SSW,206,3.3,6.5,64,0.00,,,0.00,WSDL version 430,2013-08-19 19:25:00,
2013-08-19 14:30:00,82.0,68.6,30.02,South,189,3.0,5.4,64,0.00,,,0.00,WSDL version 430,2013-08-19 19:30:00,
2013-08-19 14:35:00,82.0,68.6,30.02,WSW,241,2.7,4.9,63,0.00,,,0.00,WSDL version 430,2013-08-19 19:35:00,
2013-08-19 14:40:00,81.9,67.7,30.02,NW,312,2.6,4.9,62,0.00,,,0.00,WSDL version 430,2013-08-19 19:40:00,
2013-08-19 14:45:00,81.7,67.8,30.02,South,177,2.9,4.3,64,0.00,,,0.00,WSDL version 430,2013-08-19 19:45:00,
2013-08-19 14:50:00,81.7,68.2,30.02,SSW,195,1.8,4.3,64,0.00,,,0.00,WSDL version 430,2013-08-19 19:50:00,
2013-08-19 14:55:00,81.8,68.4,30.02,South,185,1.8,4.0,64,0.00,,,0.00,WSDL version 430,2013-08-19 19:55:00,
2013-08-19 15:00:00,81.9,68.4,30.01,SSW,200,3.2,5.6,64,0.00,,,0.00,WSDL version 430,2013-08-19 20:00:00,
2013-08-19 15:05:00,81.6,68.0,30.01,SSW,203,4.3,6.5,63,0.00,,,0.00,WSDL version 430,2013-08-19 20:05:00,
2013-08-19 15:10:00,81.5,68.0,30.01,SSW,197,3.2,6.5,64,0.00,,,0.00,WSDL version 430,2013-08-19 20:10:00,
2013-08-19 15:15:00,81.9,67.9,30.01,SSW,203,3.9,6.5,63,0.00,,,0.00,WSDL version 430,2013-08-19 20:15:00,
2013-08-19 15:20:00,82.2,68.4,30.01,SSW,206,5.5,7.8,63,0.00,,,0.00,WSDL version 430,2013-08-19 20:20:00,
2013-08-19 15:25:00,82.0,67.7,30.00,SSW,193,2.5,7.8,62,0.00,,,0.00,WSDL version 430,2013-08-19 20:25:00,
2013-08-19 15:30:00,81.7,67.7,30.00,SSW,194,1.6,6.3,63,0.00,,,0.00,WSDL version 430,2013-08-19 20:30:00,
2013-08-19 15:35:00,81.9,68.1,30.00,SSW,206,3.6,5.6,63,0.00,,,0.00,WSDL version 430,2013-08-19 20:35:00,
2013-08-19 15:40:00,81.7,67.3,30.00,SW,217,4.0,5.6,62,0.00,,,0.00,WSDL version 430,2013-08-19 20:40:00,
2013-08-19 15:45:00,81.4,66.8,30.00,SSW,198,2.2,5.6,61,0.00,,,0.00,WSDL version 430,2013-08-19 20:45:00,
2013-08-19 15:50:00,81.5,67.1,30.00,West,278,1.7,4.3,62,0.00,,,0.00,WSDL version 430,2013-08-19 20:50:00,
2013-08-19 15:55:00,81.8,67.4,30.00,South,188,4.6,7.2,62,0.00,,,0.00,WSDL version 430,2013-08-19 20:55:00,
2013-08-19 16:00:00,81.9,67.1,30.00,South,190,4.9,8.5,61,0.00,,,0.00,WSDL version 430,2013-08-19 21:00:00,
2013-08-19 16:05:00,81.9,67.1,30.00,SSW,197,3.4,8.5,61,0.00,,,0.00,WSDL version 430,2013-08-19 21:05:00,
2013-08-19 16:10:00,81.9,67.1,29.99,South,190,3.5,6.0,61,0.00,,,0.00,WSDL version 430,2013-08-19 21:10:00,
2013-08-19 16:15:00,81.8,67.0,29.99,SSW,197,4.5,6.5,61,0.00,,,0.00,WSDL version 430,2013-08-19 21:15:00,
2013-08-19 16:20:00,81.7,67.3,29.99,SSW,203,3.6,6.5,62,0.00,,,0.00,WSDL version 430,2013-08-19 21:20:00,
2013-08-19 16:25:00,81.9,67.6,29.99,South,186,2.8,5.8,62,0.00,,,0.00,WSDL version 430,2013-08-19 21:25:00,
2013-08-19 16:30:00,81.6,67.4,29.99,SSW,193,4.6,7.4,63,0.00,,,0.00,WSDL version 430,2013-08-19 21:30:00,
2013-08-19 16:35:00,81.4,67.1,29.99,SSW,200,3.2,7.4,62,0.00,,,0.00,WSDL version 430,2013-08-19 21:35:00,
2013-08-19 16:40:00,81.1,67.4,29.98,South,180,3.1,6.5,63,0.00,,,0.00,WSDL version 430,2013-08-19 21:40:00,
2013-08-19 16:45:00,81.4,67.6,29.99,SSW,198,4.3,8.5,63,0.00,,,0.00,WSDL version 430,2013-08-19 21:45:00,
2013-08-19 16:50:00,81.4,67.3,29.99,South,186,3.6,8.5,62,0.00,,,0.00,WSDL version 430,2013-08-19 21:50:00,
2013-08-19 16:55:00,81.2,66.9,29.99,SSW,206,3.5,6.0,62,0.00,,,0.00,WSDL version 430,2013-08-19 21:55:00,
2013-08-19 17:00:00,81.3,67.5,29.99,South,183,5.7,8.1,63,0.00,,,0.00,WSDL version 430,2013-08-19 22:00:00,
2013-08-19 17:05:00,81.5,67.7,29.99,South,186,3.4,8.1,63,0.00,,,0.00,WSDL version 430,2013-08-19 22:05:00,
2013-08-19 17:10:00,81.4,67.6,29.99,SSW,203,3.5,8.1,63,0.00,,,0.00,WSDL version 430,2013-08-19 22:10:00,
2013-08-19 17:15:00,81.3,67.3,29.98,South,177,3.8,8.1,62,0.00,,,0.00,WSDL version 430,2013-08-19 22:15:00,
2013-08-19 17:20:00,81.2,66.9,29.99,SSW,196,4.2,6.0,62,0.00,,,0.00,WSDL version 430,2013-08-19 22:20:00,
2013-08-19 17:25:00,81.1,66.8,29.99,SSW,193,4.3,6.3,62,0.00,,,0.00,WSDL version 430,2013-08-19 22:25:00,
2013-08-19 17:30:00,81.0,66.8,29.99,SSW,211,2.5,6.3,62,0.00,,,0.00,WSDL version 430,2013-08-19 22:30:00,
2013-08-19 17:35:00,81.2,67.5,29.98,SSW,194,3.5,6.5,64,0.00,,,0.00,WSDL version 430,2013-08-19 22:35:00,
2013-08-19 17:40:00,81.3,67.8,29.98,South,180,3.3,6.7,64,0.00,,,0.00,WSDL version 430,2013-08-19 22:40:00,
2013-08-19 17:45:00,81.4,67.9,29.98,South,188,3.8,6.7,64,0.00,,,0.00,WSDL version 430,2013-08-19 22:45:00,
2013-08-19 17:50:00,81.3,68.0,29.98,SW,215,3.6,5.8,64,0.00,,,0.00,WSDL version 430,2013-08-19 22:50:00,
2013-08-19 17:55:00,81.4,67.8,29.98,South,190,4.5,6.5,63,0.00,,,0.00,WSDL version 430,2013-08-19 22:55:00,
2013-08-19 18:00:00,81.3,67.8,29.98,South,176,3.8,6.5,64,0.00,,,0.00,WSDL version 430,2013-08-19 23:00:00,
2013-08-19 18:05:00,81.1,67.8,29.98,South,190,4.3,7.2,64,0.00,,,0.00,WSDL version 430,2013-08-19 23:05:00,
2013-08-19 18:10:00,80.9,67.6,29.98,SSW,203,3.4,7.2,64,0.00,,,0.00,WSDL version 430,2013-08-19 23:10:00,
2013-08-19 18:15:00,80.8,67.5,29.98,SW,214,3.8,6.0,64,0.00,,,0.00,WSDL version 430,2013-08-19 23:15:00,
2013-08-19 18:20:00,80.6,67.4,29.98,South,169,5.1,7.8,65,0.00,,,0.00,WSDL version 430,2013-08-19 23:20:00,
2013-08-19 18:25:00,80.3,67.4,29.98,SSW,203,4.6,7.8,64,0.00,,,0.00,WSDL version 430,2013-08-19 23:25:00,
2013-08-19 18:30:00,80.1,67.3,29.98,South,191,3.7,6.9,65,0.00,,,0.00,WSDL version 430,2013-08-19 23:30:00,
2013-08-19 18:35:00,79.9,67.1,29.98,South,190,3.5,6.9,65,0.00,,,0.00,WSDL version 430,2013-08-19 23:35:00,
2013-08-19 18:40:00,79.8,67.4,29.98,SSW,203,3.1,6.5,66,0.00,,,0.00,WSDL version 430,2013-08-19 23:40:00,
2013-08-19 18:45:00,79.7,67.3,29.98,SSW,203,2.8,5.6,66,0.00,,,0.00,WSDL version 430,2013-08-19 23:45:00,
2013-08-19 18:50:00,79.7,67.4,29.98,South,191,4.2,5.4,67,0.00,,,0.00,WSDL version 430,2013-08-19 23:50:00,
2013-08-19 18:55:00,79.6,67.7,29.98,South,186,3.3,5.4,67,0.00,,,0.00,WSDL version 430,2013-08-19 23:55:00,
2013-08-19 19:00:00,79.4,67.8,29.98,South,188,3.0,4.9,68,0.00,,,0.00,WSDL version 430,2013-08-20 00:00:00,
2013-08-19 19:05:00,79.2,67.8,29.98,SSW,197,2.5,4.9,68,0.00,,,0.00,WSDL version 430,2013-08-20 00:05:00,
2013-08-19 19:10:00,79.1,67.6,29.98,SSW,196,3.0,4.3,68,0.00,,,0.00,WSDL version 430,2013-08-20 00:10:00,
2013-08-19 19:15:00,78.9,67.4,29.98,South,183,2.3,4.3,68,0.00,,,0.00,WSDL version 430,2013-08-20 00:15:00,
2013-08-19 19:20:00,78.7,67.5,29.98,SSW,203,2.9,4.3,69,0.00,,,0.00,WSDL version 430,2013-08-20 00:20:00,
2013-08-19 19:25:00,78.5,67.3,29.98,SSW,195,1.9,4.3,69,0.00,,,0.00,WSDL version 430,2013-08-20 00:25:00,
2013-08-19 19:30:00,78.2,67.2,29.98,South,190,2.7,3.8,69,0.00,,,0.00,WSDL version 430,2013-08-20 00:30:00,
2013-08-19 19:35:00,78.0,67.0,29.98,SSW,193,3.1,5.4,69,0.00,,,0.00,WSDL version 430,2013-08-20 00:35:00,
2013-08-19 19:40:00,77.6,66.7,29.98,SSW,207,1.7,5.4,69,0.00,,,0.00,WSDL version 430,2013-08-20 00:40:00,
2013-08-19 19:45:00,77.5,66.5,29.98,SSW,205,1.2,3.8,69,0.00,,,0.00,WSDL version 430,2013-08-20 00:45:00,
2013-08-19 19:50:00,77.3,66.7,29.98,South,183,2.0,4.0,70,0.00,,,0.00,WSDL version 430,2013-08-20 00:50:00,
2013-08-19 19:55:00,76.9,66.6,29.98,South,191,1.8,4.0,71,0.00,,,0.00,WSDL version 430,2013-08-20 00:55:00,
2013-08-19 20:00:00,76.6,66.5,29.98,South,183,1.2,3.1,71,0.00,,,0.00,WSDL version 430,2013-08-20 01:00:00,
2013-08-19 20:05:00,76.3,66.2,29.98,South,185,1.4,3.1,71,0.00,,,0.00,WSDL version 430,2013-08-20 01:05:00,
2013-08-19 20:10:00,76.0,66.2,29.98,South,190,1.7,3.4,72,0.00,,,0.00,WSDL version 430,2013-08-20 01:10:00,
2013-08-19 20:15:00,75.7,66.0,29.98,SSW,203,0.5,3.4,72,0.00,,,0.00,WSDL version 430,2013-08-20 01:15:00,
2013-08-19 20:20:00,75.4,65.8,29.98,SSW,199,1.0,2.5,73,0.00,,,0.00,WSDL version 430,2013-08-20 01:20:00,
2013-08-19 20:25:00,75.1,65.9,29.98,South,191,0.0,2.5,73,0.00,,,0.00,WSDL version 430,2013-08-20 01:25:00,
2013-08-19 20:30:00,74.9,66.1,29.98,SSE,158,1.0,2.0,74,0.00,,,0.00,WSDL version 430,2013-08-20 01:30:00,
2013-08-19 20:35:00,74.6,65.8,29.98,SSW,198,0.5,2.0,74,0.00,,,0.00,WSDL version 430,2013-08-20 01:35:00,
2013-08-19 20:40:00,74.5,65.7,29.98,South,170,0.0,2.0,74,0.00,,,0.00,WSDL version 430,2013-08-20 01:40:00,
2013-08-19 20:45:00,74.3,65.7,29.98,South,180,0.0,1.3,75,0.00,,,0.00,WSDL version 430,2013-08-20 01:45:00,
2013-08-19 20:50:00,74.1,65.6,29.98,SSE,163,0.4,1.6,75,0.00,,,0.00,WSDL version 430,2013-08-20 01:50:00,
2013-08-19 20:55:00,73.8,65.4,29.98,SSE,160,0.0,1.6,76,0.00,,,0.00,WSDL version 430,2013-08-20 01:55:00,
2013-08-19 21:00:00,73.5,65.6,29.99,SSE,164,0.5,2.0,77,0.00,,,0.00,WSDL version 430,2013-08-20 02:00:00,
2013-08-19 21:05:00,73.3,65.9,29.99,South,169,2.2,2.7,78,0.00,,,0.00,WSDL version 430,2013-08-20 02:05:00,
2013-08-19 21:10:00,73.2,66.0,29.99,SSE,168,2.0,2.9,78,0.00,,,0.00,WSDL version 430,2013-08-20 02:10:00,
2013-08-19 21:15:00,73.2,66.0,29.99,SSE,166,1.7,2.9,78,0.00,,,0.00,WSDL version 430,2013-08-20 02:15:00,
2013-08-19 21:20:00,73.2,66.3,29.99,SSE,158,0.0,2.5,79,0.00,,,0.00,WSDL version 430,2013-08-20 02:20:00,
2013-08-19 21:25:00,73.2,66.2,29.99,SSE,158,0.0,1.1,79,0.00,,,0.00,WSDL version 430,2013-08-20 02:25:00,
2013-08-19 21:30:00,73.0,66.0,29.99,East,101,0.0,0.0,79,0.00,,,0.00,WSDL version 430,2013-08-20 02:30:00,
2013-08-19 21:35:00,72.8,65.9,29.99,East,90,0.0,0.0,79,0.00,,,0.00,WSDL version 430,2013-08-20 02:35:00,
2013-08-19 21:40:00,72.5,65.6,29.99,East,90,0.0,0.0,79,0.00,,,0.00,WSDL version 430,2013-08-20 02:40:00,
2013-08-19 21:45:00,72.3,65.4,29.99,East,90,0.0,0.0,79,0.00,,,0.00,WSDL version 430,2013-08-20 02:45:00,
2013-08-19 21:50:00,72.1,65.3,30.00,ESE,105,0.0,0.0,79,0.00,,,0.00,WSDL version 430,2013-08-20 02:50:00,
2013-08-19 21:55:00,71.9,65.4,30.00,ESE,113,0.0,0.0,80,0.00,,,0.00,WSDL version 430,2013-08-20 02:55:00,
2013-08-19 22:00:00,71.8,65.3,29.99,ESE,113,0.0,0.0,80,0.00,,,0.00,WSDL version 430,2013-08-20 03:00:00,
2013-08-19 22:05:00,71.6,65.1,30.00,ESE,113,0.0,0.0,80,0.00,,,0.00,WSDL version 430,2013-08-20 03:05:00,
2013-08-19 22:10:00,71.5,65.3,30.00,ESE,113,0.0,0.0,81,0.00,,,0.00,WSDL version 430,2013-08-20 03:10:00,
2013-08-19 22:15:00,71.3,65.3,30.00,ESE,113,0.0,0.0,81,0.00,,,0.00,WSDL version 430,2013-08-20 03:15:00,
2013-08-19 22:20:00,71.2,65.3,30.00,ESE,113,0.0,0.0,82,0.00,,,0.00,WSDL version 430,2013-08-20 03:20:00,
2013-08-19 22:25:00,71.0,65.2,30.00,ESE,113,0.0,0.0,82,0.00,,,0.00,WSDL version 430,2013-08-20 03:25:00,
2013-08-19 22:30:00,70.9,65.1,30.00,SSE,152,0.0,0.0,83,0.00,,,0.00,WSDL version 430,2013-08-20 03:30:00,
2013-08-19 22:35:00,70.7,65.3,30.00,SSE,158,0.0,0.9,83,0.00,,,0.00,WSDL version 430,2013-08-20 03:35:00,
2013-08-19 22:40:00,70.7,65.4,30.00,SSE,158,0.0,1.3,84,0.00,,,0.00,WSDL version 430,2013-08-20 03:40:00,
2013-08-19 22:45:00,70.7,65.6,30.00,SSE,158,0.0,1.3,84,0.00,,,0.00,WSDL version 430,2013-08-20 03:45:00,
2013-08-19 22:50:00,70.7,65.6,30.00,SSE,158,0.0,0.0,84,0.00,,,0.00,WSDL version 430,2013-08-20 03:50:00,
2013-08-19 22:55:00,70.7,65.6,30.00,SSE,158,0.0,0.0,84,0.00,,,0.00,WSDL version 430,2013-08-20 03:55:00,
2013-08-19 23:00:00,70.7,65.9,30.00,SSE,153,0.0,0.0,85,0.00,,,0.00,WSDL version 430,2013-08-20 04:00:00,
2013-08-19 23:01:00,70.7,65.9,30.00,SE,141,0.0,0.0,85,0.00,,,0.00,WSDL version 430,2013-08-20 04:01:00,
2013-08-19 23:02:00,70.7,66.0,30.00,SE,135,0.0,0.0,85,0.00,,,0.00,WSDL version 430,2013-08-20 04:02:00,
2013-08-19 23:04:00,70.7,66.0,30.00,SE,135,0.0,0.0,85,0.00,,,0.00,WSDL version 430,2013-08-20 04:04:00,
2013-08-19 23:06:00,70.7,66.0,30.00,SE,146,0.0,1.1,85,0.00,,,0.00,WSDL version 430,2013-08-20 04:06:00,
2013-08-19 23:11:00,70.6,65.8,30.00,SSE,158,0.6,2.7,85,0.00,,,0.00,WSDL version 430,2013-08-20 04:11:00,
2013-08-19 23:16:00,70.5,66.1,30.00,SSE,160,0.4,2.7,85,0.00,,,0.00,WSDL version 430,2013-08-20 04:16:00,
2013-08-19 23:21:00,70.5,66.0,30.00,SSE,158,0.4,2.7,86,0.00,,,0.00,WSDL version 430,2013-08-20 04:21:00,
2013-08-19 23:26:00,70.5,66.1,29.99,SSE,158,0.0,2.7,86,0.00,,,0.00,WSDL version 430,2013-08-20 04:26:00,
2013-08-19 23:31:00,70.4,65.9,30.00,SSE,158,0.0,0.0,86,0.00,,,0.00,WSDL version 430,2013-08-20 04:31:00,
2013-08-19 23:36:00,70.3,66.0,30.00,SE,141,0.0,0.0,86,0.00,,,0.00,WSDL version 430,2013-08-20 04:36:00,
2013-08-19 23:41:00,70.3,66.0,30.00,ESE,113,0.0,0.0,86,0.00,,,0.00,WSDL version 430,2013-08-20 04:41:00,
2013-08-19 23:46:00,70.3,66.0,30.00,ESE,113,0.0,0.0,86,0.00,,,0.00,WSDL version 430,2013-08-20 04:46:00,
2013-08-19 23:51:00,70.3,65.9,30.00,ESE,113,0.0,0.0,86,0.00,,,0.00,WSDL version 430,2013-08-20 04:51:00,
2013-08-19 23:56:00,70.2,65.8,30.00,SE,125,0.0,0.0,86,0.00,,,0.00,WSDL version 430,2013-08-20 04:56:00,